x

Central Caribbean - 210 Nm Sse Of Kingston, Jamaica (42058) Wave Buoy

9:50am - Thu 24th Apr 2014 All times are EST. -5 hours from GMT.

  • Sig Wave height 5.6ft
  • Swell Direction
  • Peak Period 7s
  • Average Period 5s
  • Wind
    18mph, 22mph gusts
  • Sea Temp 81°f
  • 空気 Temp 82°f
  • Sea Pressure 1013.6mb
  • Central Caribbean - 210 Nm Sse Of Kingston, Jamaica
  • Central Caribbean - 210 Nm Sse Of Kingston, Jamaica

More Historic Weather Station data

Upgrade to MSW Pro to gain access to the past 30 days of data for over 8000 Wavebouys and Weather Stations around the globe.

Join Pro

Comparision Forecast

View Surf forecast
   
Thu 04/24 9:50am 5.5ft 7s 5s 18 22 mph 1013.6mb 81f 82f
8:50am 5ft 8s 5s 18 22 mph 1013.3mb 81f 81f
7:50am 5ft 8s 5s 20 25 mph 1012.6mb 81f 81f
6:50am 5ft 8s 5s 20 22 mph 1012mb 81f 81f
5:50am 4.5ft 8s 5s 18 22 mph 1011.3mb 81f 81f
4:50am 4.5ft 8s 5s 20 22 mph 1010.7mb 81f 81f
3:50am 5ft 8s 5s 18 20 mph 1010.4mb 81f 81f
2:50am 5ft 7s 5s 18 22 mph 1010.5mb 81f 81f
1:50am 4.5ft 8s 5s 18 20 mph 1011.2mb 81f 81f
12:50am 4.5ft 8s 5s 18 20 mph 1011.5mb 81f 81f
Wed 04/23 11:50pm 4.5ft 8s 5s 18 22 mph 1012.2mb 81f 81f
10:50pm 4.5ft 7s 5s 18 22 mph 1012.9mb 81f 81f
9:50pm 4.5ft 7s 5s 20 22 mph 1012.8mb 81f 81f
8:50pm 4.5ft 8s 5s 18 20 mph 1012.3mb 81f 82f
7:50pm 4.5ft 7s 5s 18 22 mph 1011.6mb 81f 81f
6:50pm 4.5ft 8s 5s 18 20 mph 1011mb 81f 81f
5:50pm 4.5ft 7s 5s 18 20 mph 1010mb 82f 81f
4:50pm 4.5ft 8s 5s 16 20 mph 1009.2mb 82f 81f
3:50pm 4ft 7s 5s 18 20 mph 1009.2mb 82f 81f
2:50pm 4ft 8s 5s 18 20 mph 1009.8mb 82f 81f
1:50pm 4.5ft 7s 5s 18 20 mph 1010.6mb 82f 81f
12:50pm 4ft 6s 5s 18 20 mph 1011.6mb 82f 81f
11:50am 4ft 7s 5s 18 20 mph 1012.3mb 82f 82f
10:50am 4.5ft 8s 5s 18 22 mph 1012.7mb 81f 81f
9:50am 4ft 7s 5s 18 20 mph 1012.6mb 81f 81f
8:50am 3.5ft 7s 5s 16 20 mph 1012.6mb 81f 81f
7:50am 4ft 7s 5s 18 20 mph 1011.9mb 81f 81f
6:50am 3.5ft 8s 5s 18 20 mph 1011.3mb 81f 81f
5:50am 3.5ft 7s 5s 16 18 mph 1011mb 81f 81f
4:50am 3.5ft 7s 5s 16 18 mph 1010.4mb 81f 81f
3:50am 4ft 5s 5s 16 18 mph 1010.3mb 81f 81f
2:50am 4ft 5s 5s 16 20 mph 1009.9mb 81f 80f
1:50am 4.5ft 7s 5s 18 20 mph 1010.3mb 81f 81f
12:50am 4.5ft 8s 5s 18 20 mph 1010.6mb 81f 81f
Tue 04/22 11:50pm 4.5ft 8s 5s 18 20 mph 1011.4mb 81f 81f
10:50pm 4.5ft 8s 5s 16 20 mph 1011.8mb 81f 81f
9:50pm 4.5ft 7s 5s 16 20 mph 1011.6mb 81f 81f
8:50pm 4.5ft 8s 5s 16 20 mph 1011.1mb 81f 81f
7:50pm 4.5ft 7s 5s 16 18 mph 1010.5mb 82f 81f
6:50pm 4.5ft 7s 5s 16 18 mph 1009.8mb 82f 81f
5:50pm 4.5ft 7s 5s 16 18 mph 1008.7mb 82f 81f
4:50pm 4.5ft 8s 5s 16 18 mph 1008.6mb 82f 81f
3:50pm 4.5ft 8s 5s 13 16 mph 1009.2mb 82f 81f
2:50pm 4.5ft 8s 5s 13 16 mph 1009.7mb 82f 81f
1:50pm 4.5ft 8s 5s 16 18 mph 1010mb 82f 81f
12:50pm 5ft 8s 6s 16 18 mph 1010.7mb 82f 81f
11:50am 5ft 8s 6s 16 18 mph 1011.6mb 82f 81f
10:50am 4.5ft 8s 5s 16 18 mph 1011.8mb 81f 81f
9:50am 5ft 8s 6s 13 18 mph 1011.9mb 81f 81f
8:50am 5ft 8s 6s 16 18 mph 1011.6mb 81f 81f
7:50am 5ft 8s 6s 16 18 mph 1011.4mb 81f 81f
6:50am 5ft 8s 6s 16 18 mph 1011.1mb 81f 81f
5:50am 5ft 8s 6s 13 18 mph 1010.5mb 81f 80f
4:50am 5ft 9s 6s 16 18 mph 1010.2mb 81f 80f
3:50am 5ft 9s 5s 16 20 mph 1010.1mb 81f 80f
2:50am 5.5ft 8s 6s 16 18 mph 1010.2mb 81f 80f
1:50am 6ft 8s 6s 16 18 mph 1010.7mb 81f 80f
12:50am 5ft 8s 5s 16 20 mph 1011.2mb 81f 81f
Mon 04/21 11:50pm 5.5ft 8s 6s 16 20 mph 1011.8mb 81f 81f
10:50pm 6ft 8s 6s 18 20 mph 1011.9mb 81f 81f
9:50pm 5.5ft 8s 5s 18 20 mph 1011.8mb 81f 81f
8:50pm 6ft 8s 6s 18 20 mph 1011mb 81f 81f
7:50pm 5.5ft 8s 6s 18 20 mph 1010.3mb 81f 81f
6:50pm 6ft 9s 6s 18 20 mph 1010.5mb 81f 81f
5:50pm 6ft 8s 6s 18 20 mph 1010.1mb 81f 81f
4:50pm 6ft 8s 6s 18 22 mph 1009.8mb 82f 81f
3:50pm 6ft 8s 6s 16 18 mph 1010.1mb 82f 81f
2:50pm 6ft 8s 6s 16 18 mph 1010.8mb 82f 81f
1:50pm 6ft 8s 6s 16 20 mph 1011.2mb 82f 81f
12:50pm 7ft 8s 6s 16 18 mph 1011.8mb 82f 81f
11:50am 6.5ft 8s 6s 18 20 mph 1012.1mb 81f 81f
10:50am 6.5ft 8s 6s 18 20 mph 1012.6mb 81f 81f
9:50am 7ft 7s 6s 18 22 mph 1012.7mb 81f 81f
8:50am 7ft 8s 6s 18 22 mph 1012.8mb 81f 81f
7:50am 6.5ft 8s 6s 20 22 mph 1012.7mb 81f 81f
6:50am 6ft 8s 5s 22 25 mph 1012.1mb 81f 81f
5:50am 7.5ft 8s 6s 18 22 mph 1011.9mb 81f 81f
4:50am 7ft 8s 6s 20 25 mph 1011.7mb 81f 81f
3:50am 6.5ft 8s 5s 20 22 mph 1011.2mb 81f 81f
2:50am 7ft 8s 6s 22 27 mph 1011.2mb 81f 81f
1:50am 7ft 8s 6s 20 25 mph 1011.6mb 81f 81f
12:50am 7ft 8s 6s 20 25 mph 1012mb 81f 81f
Sun 04/20 11:50pm 7ft 8s 6s 20 22 mph 1012.7mb 81f 81f
10:50pm 6.5ft 8s 6s 20 27 mph 1013.1mb 81f 81f
9:50pm 7ft 8s 6s 22 27 mph 1013mb 81f 81f
8:50pm 7ft 8s 6s 20 25 mph 1012.7mb 81f 81f
7:50pm 6ft 8s 6s 20 25 mph 1012.6mb 81f 81f
6:50pm 8ft 8s 6s 20 22 mph 1012.2mb 81f 81f
5:50pm 7ft 8s 6s 20 22 mph 1011.6mb 81f 81f
4:50pm 7ft 7s 6s 20 22 mph 1011.1mb 81f 81f